Location: Lafig�re
(44.4503°N, 4.0357°E)
Time: 02:09:57
(UTC+00:00)

Transit 4A - Pass Details

Date: 28 January 2021
Orbit: 866 x 979 km, 66.8° (Epoch: 24 February)

Event Time Altitude Azimuth Distance (km) Brightness Sun altitude
Rises 23:43:31 0° 330° (NNW) 3,651 - -63.3°
Reaches altitude 10° 23:47:55 10° 358° (N) 2,679 - -63.4°
Maximum altitude 23:50:33 13° 23° (NNE) 2,468 - -63.4°
Drops below altitude 10° 23:53:09 10° 48° (NE) 2,643 - -63.5°
Sets 23:57:24 0° 77° (ENE) 3,554 - -63.5°
